Location: Cahas Mountain Overlook
(37.0833°N, 80.1000°W)
Time: 02:35:42
(UTC-05:00)

Explorer 7 - Visible Passes

Search period start: 15 February 2026 00:00
Search period end: 25 February 2026 00:00
Orbit: 431 x 545 km, 50.2° (Epoch: 13 February)

Date Brightness Start Highest point End Pass type
(mag) Time Alt. Az. Time Alt. Az. Time Alt. Az.
15 Feb 9.1 19:09:02 10° NNW 19:10:13 11° N 19:11:25 10° NNE visible
16 Feb 9.0 18:43:28 10° NNW 18:44:34 11° N 18:45:41 10° NNE visible
16 Feb 9.5 20:21:25 10° NNW 20:21:46 12° NNW 20:21:46 12° NNW visible
17 Feb 8.9 19:55:48 10° NNW 19:57:17 16° N 19:57:17 16° N visible
18 Feb 8.5 19:30:10 10° NNW 19:32:49 18° NNE 19:32:49 18° NNE visible
19 Feb 8.5 19:04:30 10° NNW 19:07:04 17° NNE 19:08:22 15° NE visible
19 Feb 9.6 20:42:10 10° NW 20:42:45 14° NW 20:42:45 14° NW visible
20 Feb 8.5 18:38:47 10° NNW 18:41:17 17° NNE 18:43:49 10° ENE visible
20 Feb 8.4 20:16:26 10° NW 20:18:21 28° NW 20:18:21 28° NW visible
21 Feb 6.8 19:50:40 10° NW 19:54:01 59° N 19:54:01 59° N visible
22 Feb 6.6 19:24:52 10° NW 19:28:36 61° NE 19:29:46 39° E visible
23 Feb 6.7 18:59:02 10° NW 19:02:43 57° NE 19:05:38 16° ESE visible
23 Feb 9.3 20:38:15 10° W 20:40:02 17° WSW 20:40:02 17° WSW visible
24 Feb 6.8 18:33:10 10° NW 18:36:49 54° NE 18:40:36 10° ESE visible
24 Feb 9.0 20:12:17 10° W 20:14:59 18° SW 20:16:05 17° SSW visible
